Aurora, CO

1:24 AM MDT on April 24, 2018 (GMT -0600)
Buckley Air Force Base

Weather History for KBKF - July, 2013

Change the Weather History Date:

Friday, July 12, 2013

  Actual Average Record
Temperature  
Mean Temperature 78 °F -  
Max Temperature 91 °F 86 °F 95 °F (2004)
Min Temperature 64 °F 59 °F 53 °F (2008)
Cooling Degree Days 12    
Growing Degree Days 28 (Base 50)    
Moisture  
Dew Point 54 °F    
Average Humidity 50    
Maximum Humidity 83    
Minimum Humidity 21    
Precipitation  
Precipitation 0.15 in - - ()
Sea Level Pressure  
Sea Level Pressure 29.88 in    
Wind  
Wind Speed 9 mph (WSW)    
Max Wind Speed 20 mph    
Max Gust Speed 30 mph    
Visibility 8 miles    
Events Rain , Thunderstorm    
Averages and records for this station are not official NWS values.
T = Trace of Precipitation, MM = Missing Value Source: NWS Daily Summary

Daily Weather History Graph

Daily Weather History Graph

Search for Another Location

Airport or City:

Astronomy

Jul. 12, 2013 Rise Set
Actual Time 5:41 AM MDT 8:27 PM MDT
Civil Twilight 5:09 AM MDT 8:59 PM MDT
Nautical Twilight 4:29 AM MDT 9:38 PM MDT
Astronomical Twilight 3:44 AM MDT 10:24 PM MDT
Moon 10:00 AM MDT (7/12) 10:40 PM MDT (7/12)
Length of Visible Light 15h 49m
Length of Day
14h 45m
Waxing Crescent, 18% of the Moon is Illuminated
Jul 12
Waxing Crescent
Jul 15
First Quarter
Jul 22
Full
Jul 29
Last Quarter
Aug 6
New

Hourly Weather History & Observations

Time (MDT) Temp. Heat Index Dew Point Humidity Pressure Visibility Wind Dir Wind Speed Gust Speed Precip Events Conditions
12:55 AM 68.0 °F - 57.2 °F 68% 29.79 in 7.0 mi South 5.8 mph - N/A   Scattered Clouds
1:55 AM 66.2 °F - 55.4 °F 68% 29.76 in 10.0 mi South 8.1 mph - N/A   Scattered Clouds
2:55 AM 66.2 °F - 55.4 °F 68% 29.76 in 7.0 mi SSW 9.2 mph - N/A   Scattered Clouds
3:55 AM 66.2 °F - 51.8 °F 60% 29.75 in 7.0 mi SW 10.4 mph - N/A   Partly Cloudy
4:55 AM 64.4 °F - 53.6 °F 68% 29.76 in 7.0 mi SSW 8.1 mph - N/A   Scattered Clouds
5:55 AM 64.4 °F - 51.8 °F 64% 29.78 in 25.0 mi SSW 6.9 mph - N/A   Mostly Cloudy
6:55 AM 66.2 °F - 51.8 °F 60% 29.79 in 25.0 mi South 6.9 mph - N/A   Mostly Cloudy
7:55 AM 75.2 °F - 51.8 °F 44% 29.81 in 25.0 mi SW 4.6 mph - N/A   Scattered Clouds
8:55 AM 80.6 °F - 48.2 °F 32% 29.82 in 25.0 mi NE 2.3 mph - N/A   Scattered Clouds
9:55 AM 84.2 °F - 48.2 °F 29% 29.83 in 25.0 mi ENE 11.5 mph - N/A   Scattered Clouds
10:55 AM 87.8 °F - 48.2 °F 25% 29.84 in 25.0 mi East 9.2 mph - N/A   Scattered Clouds
11:55 AM 89.6 °F - 46.4 °F 22% 29.83 in 25.0 mi East 13.8 mph 20.7 mph N/A   Scattered Clouds
12:55 PM 91.4 °F - 46.4 °F 21% 29.82 in 25.0 mi NE 12.7 mph 23.0 mph N/A   Scattered Clouds
1:55 PM 91.4 °F - 48.2 °F 23% 29.80 in 25.0 mi ENE 10.4 mph - N/A   Mostly Cloudy
2:55 PM 89.6 °F - 48.2 °F 24% 29.80 in 70.0 mi ESE 8.1 mph - N/A   Mostly Cloudy
3:36 PM 87.8 °F - 46.4 °F 24% 30.07 in 70.0 mi Calm Calm - N/A Thunderstorm Thunderstorm
3:41 PM 87.8 °F - 48.2 °F 25% 30.08 in 70.0 mi SW 13.8 mph - N/A Rain , Thunderstorm Light Thunderstorms and Rain
3:55 PM 80.6 °F 80.3 °F 53.6 °F 39% 29.84 in 70.0 mi WNW 11.5 mph 27.6 mph N/A Rain , Thunderstorm Light Thunderstorms and Rain
4:05 PM 78.8 °F - 57.2 °F 47% 30.08 in 70.0 mi NW 18.4 mph 29.9 mph N/A Thunderstorm Mostly Cloudy
4:55 PM 78.8 °F - 57.2 °F 47% 29.86 in 10.0 mi NNW 18.4 mph - N/A   Mostly Cloudy
5:55 PM 80.6 °F 80.3 °F 53.6 °F 39% 29.84 in 25.0 mi WNW 19.6 mph 26.5 mph N/A   Mostly Cloudy
6:55 PM 78.8 °F - 51.8 °F 39% 29.86 in 25.0 mi NW 19.6 mph - N/A   Mostly Cloudy
7:18 PM 77.0 °F - 53.6 °F 44% 30.12 in 25.0 mi West 12.7 mph - N/A Thunderstorm Thunderstorm
7:44 PM 75.2 °F - 57.2 °F 53% 30.14 in 5.0 mi West 10.4 mph - N/A Rain , Thunderstorm Light Thunderstorms and Rain
7:55 PM 71.6 °F - 60.8 °F 69% 29.90 in 10.0 mi West 13.8 mph - N/A Rain , Thunderstorm Light Thunderstorms and Rain
8:15 PM 68.0 °F - 62.6 °F 83% 30.13 in 10.0 mi ENE 8.1 mph - N/A Thunderstorm Mostly Cloudy
8:55 PM 68.0 °F - 60.8 °F 78% 29.88 in 25.0 mi North 9.2 mph - N/A   Mostly Cloudy
9:55 PM 68.0 °F - 60.8 °F 78% 29.89 in 25.0 mi Calm Calm - N/A   Mostly Cloudy
10:55 PM 68.0 °F - 62.6 °F 83% 29.89 in 25.0 mi Calm Calm - N/A   Mostly Cloudy
11:55 PM 68.0 °F - 60.8 °F 78% 29.91 in 25.0 mi East 5.8 mph - N/A   Mostly Cloudy